Weather History for Hollywood, FL

Change the Weather History Date:

Friday, February 10, 2012

  Actual Average (KFLL) Record (KFLL)
Temperature  
Mean Temperature 76 °F 71 °F  
Max Temperature 82 °F 78 °F 89 °F (1946)
Min Temperature 69 °F 64 °F 37 °F (1917)
Degree Days  
Heating Degree Days 0 1  
Month to date heating degree days 10  
Since 1 July heating degree days 90  
Cooling Degree Days 10 7  
Month to date cooling degree days 61  
Year to date cooling degree days 231  
Growing Degree Days 26 (Base 50)    
Moisture  
Dew Point 70 °F    
Average Humidity 92    
Maximum Humidity 100    
Minimum Humidity 62    
Precipitation  
Precipitation 0.53 in 0.12 in 1.50 in (1934)
Month to date precipitation 1.09  
Year to date precipitation 4.72  
Snow  
Snow 0.00 in - - ()
Month to date snowfall  
Since 1 July snowfall  
Snow Depth -    
Sea Level Pressure  
Sea Level Pressure 30.04 in    
Wind  
Wind Speed 8 mph (ESE)    
Max Wind Speed 12 mph    
Max Gust Speed -    
Visibility 7 miles    
Events Rain    
T = Trace of Precipitation, MM = Missing Value Source: NWS Daily Summary

Daily Weather History Graph

Daily Weather History Graph

Search for Another Location

Airport:

Trip Planner

Search our weather history database for the weather conditions in past years. The results will help you decide how hot, cold, wet, or windy it might be!

Date:

Astronomy

Feb. 10, 2012 Rise Set
Actual Time 7:00 AM EST 6:10 PM EST
Civil Twilight 6:36 AM EST 6:34 PM EST
Nautical Twilight 6:09 AM EST 7:01 PM EST
Astronomical Twilight 5:42 AM EST 7:28 PM EST
Moon 9:17 PM EST (2/10) 8:32 AM EST (2/10)
Length of Visible Light 11h 57m
Length of Day
11h 10m
Waning Gibbous, 90% of the Moon is Illuminated
Feb 10
Waning Gibbous
Feb 14
Last Quarter
Feb 21
New
Feb 29
First Quarter
Mar 8
Full

Hourly Weather History & Observations

Time (EST) Temp. Heat Index Dew Point Humidity Pressure Visibility Wind Dir Wind Speed Gust Speed Precip Events Conditions
12:09 AM 69.8 °F - 69.8 °F 100% 30.09 in 3.0 mi ENE 9.2 mph - 0.12 in Rain Light Rain
12:21 AM 69.8 °F - 69.8 °F 100% 30.09 in 2.5 mi ENE 8.1 mph - 0.18 in Rain Rain
12:31 AM 69.8 °F - 69.8 °F 100% 30.09 in 1.8 mi NE 11.5 mph - 0.30 in Rain Light Rain
12:34 AM 69.8 °F - 69.8 °F 100% 30.09 in 2.5 mi NE 8.1 mph - 0.30 in Rain Light Rain
12:41 AM 69.8 °F - 69.8 °F 100% 30.08 in 4.0 mi ENE 11.5 mph - 0.31 in Rain Light Rain
12:53 AM 70.0 °F - 70.0 °F 100% 30.08 in 3.0 mi NE 11.5 mph - 0.33 in Rain Light Rain
1:43 AM 69.8 °F - 69.8 °F 100% 30.07 in 6.0 mi NE 3.5 mph - 0.00 in   Overcast
1:53 AM 70.0 °F - 70.0 °F 100% 30.07 in 7.0 mi ENE 5.8 mph - 0.00 in   Overcast
2:08 AM 71.6 °F - 71.6 °F 100% 30.06 in 7.0 mi ENE 3.5 mph - N/A   Overcast
2:53 AM 70.0 °F - 70.0 °F 100% 30.05 in 5.0 mi East 9.2 mph - 0.01 in Rain Light Rain
3:25 AM 69.8 °F - 69.8 °F 100% 30.04 in 7.0 mi ENE 8.1 mph - 0.00 in   Overcast
3:53 AM 70.0 °F - 70.0 °F 100% 30.04 in 8.0 mi ENE 8.1 mph - 0.00 in   Overcast
4:53 AM 71.1 °F - 70.0 °F 96% 30.04 in 8.0 mi ENE 9.2 mph - N/A   Overcast
5:03 AM 71.6 °F - 69.8 °F 94% 30.03 in 8.0 mi ENE 9.2 mph - N/A   Overcast
5:10 AM 71.6 °F - 69.8 °F 94% 30.03 in 6.0 mi ENE 8.1 mph - 0.01 in Rain Light Rain
5:49 AM 71.6 °F - 69.8 °F 94% 30.04 in 4.0 mi East 6.9 mph - 0.06 in Rain Light Rain
5:53 AM 71.1 °F - 70.0 °F 96% 30.04 in 6.0 mi East 8.1 mph - 0.06 in Rain Light Rain
6:09 AM 71.6 °F - 69.8 °F 94% 30.04 in 2.5 mi East 4.6 mph - 0.03 in Rain Light Rain
6:18 AM 71.6 °F - 69.8 °F 94% 30.04 in 4.0 mi East 6.9 mph - 0.04 in Rain Light Rain
6:31 AM 71.6 °F - 69.8 °F 94% 30.04 in 7.0 mi East 8.1 mph - 0.04 in   Overcast
6:39 AM 71.6 °F - 69.8 °F 94% 30.04 in 5.0 mi East 6.9 mph - 0.04 in Rain Light Rain
6:53 AM 71.1 °F - 70.0 °F 96% 30.04 in 4.0 mi East 6.9 mph - 0.04 in   Overcast
7:20 AM 71.6 °F - 69.8 °F 94% 30.05 in 7.0 mi ESE 5.8 mph - 0.00 in   Overcast
7:41 AM 71.6 °F - 69.8 °F 94% 30.06 in 5.0 mi East 9.2 mph - 0.00 in Rain Light Rain
7:53 AM 71.1 °F - 70.0 °F 96% 30.06 in 3.0 mi East 9.2 mph - 0.00 in Rain Light Rain
7:58 AM 71.6 °F - 69.8 °F 94% 30.07 in 1.8 mi East 10.4 mph - 0.01 in Rain Light Rain
8:15 AM 71.6 °F - 69.8 °F 94% 30.07 in 1.5 mi East 6.9 mph - 0.05 in Rain Light Rain
8:22 AM 71.6 °F - 69.8 °F 94% 30.07 in 1.5 mi East 8.1 mph - 0.06 in Rain Rain
8:32 AM 71.6 °F - 69.8 °F 94% 30.08 in 1.2 mi East 8.1 mph - 0.10 in Rain Rain
8:42 AM 71.6 °F - 69.8 °F 94% 30.08 in 3.0 mi ESE 9.2 mph - 0.10 in Rain Light Rain
8:53 AM 71.1 °F - 71.1 °F 100% 30.08 in 7.0 mi SE 9.2 mph - 0.10 in   Overcast
9:02 AM 71.6 °F - 71.6 °F 100% 30.07 in 7.0 mi ESE 9.2 mph - N/A   Overcast
9:31 AM 73.4 °F - 71.6 °F 94% 30.07 in 9.0 mi ESE 9.2 mph - N/A   Overcast
9:53 AM 73.0 °F - 71.1 °F 93% 30.09 in 10.0 mi ESE 9.2 mph - N/A   Overcast
10:01 AM 73.4 °F - 71.6 °F 94% 30.09 in 10.0 mi ESE 8.1 mph - N/A   Overcast
10:53 AM 75.9 °F - 71.1 °F 85% 30.07 in 10.0 mi SE 9.2 mph - N/A   Overcast
11:00 AM 77.0 °F - 71.6 °F 83% 30.07 in 10.0 mi SE 8.1 mph - N/A   Mostly Cloudy
11:53 AM 77.0 °F - 70.0 °F 79% 30.05 in 10.0 mi Calm Calm - N/A   Mostly Cloudy
12:19 PM 78.8 °F - 69.8 °F 74% 30.03 in 10.0 mi SSE 6.9 mph - N/A   Overcast
12:29 PM 80.6 °F 84.6 °F 71.6 °F 74% 30.03 in 10.0 mi Variable 5.8 mph - N/A   Mostly Cloudy
12:53 PM 80.1 °F 82.7 °F 68.0 °F 67% 30.01 in 10.0 mi SSW 5.8 mph - N/A   Scattered Clouds
1:53 PM 82.0 °F 84.9 °F 68.0 °F 62% 29.99 in 10.0 mi Variable 4.6 mph - N/A   Partly Cloudy
2:53 PM 80.1 °F 83.2 °F 70.0 °F 71% 29.97 in 10.0 mi South 11.5 mph - N/A   Mostly Cloudy
3:53 PM 78.1 °F - 71.1 °F 79% 29.96 in 10.0 mi SSE 10.4 mph - 0.01 in Rain Light Rain
4:53 PM 73.9 °F - 71.1 °F 91% 29.95 in 10.0 mi South 4.6 mph - 0.02 in   Mostly Cloudy
5:53 PM 73.9 °F - 70.0 °F 87% 29.95 in 10.0 mi SSE 9.2 mph - N/A   Clear
6:53 PM 73.0 °F - 70.0 °F 90% 29.95 in 10.0 mi South 8.1 mph - N/A   Clear
7:53 PM 73.0 °F - 71.1 °F 93% 29.94 in 10.0 mi South 8.1 mph - N/A   Clear
8:53 PM 73.0 °F - 70.0 °F 90% 29.96 in 10.0 mi SSW 9.2 mph - N/A   Clear
9:53 PM 73.0 °F - 70.0 °F 90% 29.96 in 9.0 mi SW 8.1 mph - N/A   Clear
10:53 PM 73.0 °F - 71.1 °F 93% 29.96 in 9.0 mi WSW 8.1 mph - N/A   Mostly Cloudy
11:53 PM 71.1 °F - 68.0 °F 90% 29.96 in 10.0 mi WSW 6.9 mph - N/A   Clear